User: anonymous   Login
Location: Unspecified
(0.0000°N, 0.0000°E)
Time: 19:09:44
(UTC+00:00)
Language:

STARLINK-30807 - Orbit

View from above orbital plane
View from above orbital plane
View from above satellite
View from above satellite

Ground track
Ground track

The orbit is defined by the following mean orbital elements,

1 58192U          26145.51180909 +.00000000 +00000-0 +78722-3 0 00008
2 58192  43.0016  69.5804 0000705 283.5439  76.5334 15.27590241    03
Epoch (UTC): 25 May 2026 12:17:00
Eccentricity: 0.0000705
inclination: 43.0016°
perigee height: 483 km
apogee height: 484 km
right ascension of ascending node: 69.5804°
argument of perigee: 283.5439°
revolutions per day: 15.27590241
mean anomaly at epoch: 76.5334°

The dashed part of the orbit path shows where the satellite is in the earth's shadow,  

DLR